When you browse on this site, cookies collect data to enhance your experience and personalize the content and advertising you see.
Visit our Privacy Policy to learn more. By continuing to use the site, you agree to this use of cookies and data.
  • En España
  • Lista de países
  • Para 7 días
  • Temperatura del agua
  • Mapa Satelital
  • El tiempo en el mapa
  • Informadores
  • user-avatar
    Iniciar sesión

    Tiempo cada hora Birevo

    Hoy, 17 Junio, Lunes

    Tiempo Temperatura Precipitaciones Viento Presión Humedad
    00:00 +14°C° 0 mm 0 mps 741 mmHg 88%
    01:00 +14°C° 0 mm 1 mps 742 mmHg 88%
    02:00 +14°C° 0 mm 1 mps 742 mmHg 89%
    03:00 +14°C° 0 mm 1 mps 742 mmHg 89%
    04:00 +14°C° 0 mm 1 mps 742 mmHg 89%
    05:00 +15°C° 0 mm 1 mps 742 mmHg 88%
    06:00 +16°C° 0 mm 1 mps 742 mmHg 87%
    07:00 +18°C° 0 mm 1 mps 742 mmHg 83%
    08:00 +19°C° 0 mm 1 mps 742 mmHg 79%
    09:00 +20°C° 0 mm 2 mps 742 mmHg 75%
    10:00 +20°C° 0 mm 2 mps 742 mmHg 70%
    11:00 +21°C° 0 mm 2 mps 742 mmHg 65%
    12:00 +23°C° 0 mm 2 mps 742 mmHg 61%
    13:00 +24°C° 0 mm 2 mps 742 mmHg 60%
    14:00 +24°C° 0 mm 3 mps 742 mmHg 60%
    15:00 +25°C° 0 mm 3 mps 742 mmHg 60%
    16:00 +24°C° 0.1 mm 3 mps 741 mmHg 66%
    17:00 +22°C° 0.1 mm 3 mps 741 mmHg 72%
    18:00 +21°C° 0.1 mm 3 mps 741 mmHg 78%
    19:00 +20°C° 0 mm 2 mps 741 mmHg 80%
    20:00 +20°C° 0 mm 2 mps 741 mmHg 82%
    21:00 +19°C° 0 mm 2 mps 741 mmHg 83%
    22:00 +18°C° 0 mm 2 mps 741 mmHg 86%
    23:00 +17°C° 0 mm 2 mps 741 mmHg 88%

    Mañana, 18 Junio, Martes

    Tiempo Temperatura Precipitaciones Viento Presión Humedad
    00:00 +17°C° 0 mm 2 mps 741 mmHg 90%
    01:00 +16°C° 0.2 mm 2 mps 741 mmHg 91%
    02:00 +16°C° 0.2 mm 2 mps 740 mmHg 92%
    03:00 +16°C° 0.2 mm 2 mps 740 mmHg 93%
    04:00 +16°C° 0.4 mm 2 mps 740 mmHg 93%
    05:00 +17°C° 0.4 mm 2 mps 740 mmHg 94%
    06:00 +17°C° 0.4 mm 2 mps 740 mmHg 94%
    07:00 +19°C° 0.3 mm 2 mps 740 mmHg 91%
    08:00 +21°C° 0.3 mm 1 mps 740 mmHg 87%
    09:00 +22°C° 0.3 mm 1 mps 740 mmHg 83%
    10:00 +23°C° 0.4 mm 2 mps 740 mmHg 78%
    11:00 +24°C° 0.4 mm 2 mps 740 mmHg 73%
    12:00 +25°C° 0.4 mm 3 mps 740 mmHg 68%
    13:00 +26°C° 0.4 mm 3 mps 740 mmHg 66%
    14:00 +26°C° 0.4 mm 3 mps 740 mmHg 63%
    15:00 +26°C° 0.4 mm 3 mps 740 mmHg 61%
    16:00 +26°C° 0.1 mm 3 mps 740 mmHg 64%
    17:00 +26°C° 0.1 mm 3 mps 740 mmHg 67%
    18:00 +25°C° 0.1 mm 3 mps 740 mmHg 70%
    19:00 +22°C° 0 mm 3 mps 740 mmHg 71%
    20:00 +21°C° 0 mm 3 mps 740 mmHg 73%
    21:00 +19°C° 0 mm 3 mps 741 mmHg 75%
    22:00 +18°C° 0 mm 3 mps 741 mmHg 77%
    23:00 +17°C° 0 mm 3 mps 741 mmHg 79%

    Pasado mañana, 19 Junio, Miércoles

    Tiempo Temperatura Precipitaciones Viento Presión Humedad
    00:00 +16°C° 0 mm 3 mps 741 mmHg 82%
    01:00 +16°C° 0 mm 3 mps 742 mmHg 81%
    02:00 +14°C° 0 mm 3 mps 742 mmHg 81%
    03:00 +13°C° 0 mm 3 mps 742 mmHg 81%
    04:00 +14°C° 0 mm 3 mps 742 mmHg 81%
    05:00 +14°C° 0 mm 3 mps 742 mmHg 81%
    06:00 +14°C° 0 mm 3 mps 743 mmHg 81%
    07:00 +17°C° 0 mm 3 mps 743 mmHg 78%
    08:00 +19°C° 0 mm 3 mps 743 mmHg 74%
    09:00 +21°C° 0 mm 3 mps 743 mmHg 70%
    10:00 +22°C° 0 mm 3 mps 743 mmHg 65%
    11:00 +24°C° 0 mm 3 mps 743 mmHg 61%
    12:00 +25°C° 0 mm 3 mps 744 mmHg 57%
    13:00 +26°C° 0 mm 3 mps 743 mmHg 55%
    14:00 +26°C° 0 mm 3 mps 743 mmHg 54%
    15:00 +26°C° 0 mm 3 mps 743 mmHg 53%
    16:00 +26°C° 0 mm 2 mps 743 mmHg 56%
    17:00 +26°C° 0 mm 2 mps 743 mmHg 60%
    18:00 +26°C° 0 mm 2 mps 743 mmHg 64%
    19:00 +24°C° 0 mm 1 mps 743 mmHg 68%
    20:00 +22°C° 0 mm 1 mps 743 mmHg 71%
    21:00 +20°C° 0 mm 1 mps 743 mmHg 75%
    22:00 +19°C° 0 mm 1 mps 743 mmHg 76%
    23:00 +18°C° 0 mm 1 mps 743 mmHg 78%

    20 Junio, Jueves

    Tiempo Temperatura Precipitaciones Viento Presión Humedad
    00:00 +18°C° 0 mm 1 mps 744 mmHg 79%
    01:00 +16°C° 0 mm 1 mps 744 mmHg 80%
    02:00 +16°C° 0 mm 1 mps 744 mmHg 80%
    03:00 +15°C° 0 mm 1 mps 744 mmHg 80%
    04:00 +16°C° 0 mm 1 mps 744 mmHg 79%
    05:00 +18°C° 0 mm 1 mps 744 mmHg 79%
    06:00 +18°C° 0 mm 1 mps 745 mmHg 79%
    07:00 +20°C° 0 mm 1 mps 745 mmHg 74%
    08:00 +22°C° 0 mm 1 mps 745 mmHg 69%
    09:00 +23°C° 0 mm 1 mps 745 mmHg 64%
    10:00 +25°C° 0 mm 1 mps 745 mmHg 58%
    11:00 +24°C° 0 mm 0 mps 745 mmHg 53%
    12:00 +25°C° 0 mm 0 mps 745 mmHg 48%
    13:00 +25°C° 0 mm 0 mps 745 mmHg 46%
    14:00 +28°C° 0 mm 1 mps 745 mmHg 45%
    15:00 +28°C° 0 mm 1 mps 744 mmHg 44%
    16:00 +28°C° 0 mm 1 mps 744 mmHg 48%
    17:00 +27°C° 0 mm 1 mps 744 mmHg 53%
    18:00 +27°C° 0 mm 1 mps 744 mmHg 57%
    19:00 +25°C° 0 mm 1 mps 744 mmHg 59%
    20:00 +23°C° 0 mm 1 mps 744 mmHg 61%
    21:00 +21°C° 0 mm 1 mps 744 mmHg 63%
    22:00 +20°C° 0 mm 1 mps 744 mmHg 64%
    23:00 +20°C° 0 mm 1 mps 744 mmHg 66%

    21 Junio, Viernes

    Tiempo Temperatura Precipitaciones Viento Presión Humedad
    00:00 +19°C° 0 mm 1 mps 744 mmHg 68%
    01:00 +18°C° 0 mm 1 mps 745 mmHg 70%
    02:00 +18°C° 0 mm 1 mps 745 mmHg 72%
    03:00 +16°C° 0 mm 1 mps 745 mmHg 74%
    04:00 +18°C° 0 mm 1 mps 745 mmHg 75%
    05:00 +19°C° 0 mm 1 mps 745 mmHg 76%
    06:00 +19°C° 0 mm 1 mps 745 mmHg 77%
    07:00 +21°C° 0 mm 1 mps 745 mmHg 74%
    08:00 +22°C° 0 mm 1 mps 745 mmHg 70%
    09:00 +24°C° 0 mm 1 mps 745 mmHg 67%
    10:00 +25°C° 0 mm 2 mps 745 mmHg 63%
    11:00 +26°C° 0 mm 2 mps 745 mmHg 58%
    12:00 +27°C° 0 mm 2 mps 745 mmHg 54%
    13:00 +27°C° 0 mm 2 mps 745 mmHg 55%
    14:00 +27°C° 0 mm 2 mps 745 mmHg 56%
    15:00 +27°C° 0 mm 3 mps 745 mmHg 57%
    16:00 +27°C° 0 mm 3 mps 745 mmHg 61%
    17:00 +27°C° 0 mm 3 mps 744 mmHg 65%
    18:00 +27°C° 0 mm 3 mps 744 mmHg 69%
    19:00 +25°C° 0 mm 3 mps 744 mmHg 73%
    20:00 +23°C° 0 mm 2 mps 744 mmHg 76%
    21:00 +21°C° 0 mm 2 mps 744 mmHg 79%
    22:00 +20°C° 0 mm 2 mps 744 mmHg 80%
    23:00 +20°C° 0 mm 3 mps 744 mmHg 80%

    22 Junio, Sábado

    Tiempo Temperatura Precipitaciones Viento Presión Humedad
    00:00 +19°C° 0 mm 3 mps 744 mmHg 81%
    01:00 +19°C° 0 mm 3 mps 744 mmHg 81%
    02:00 +19°C° 0 mm 3 mps 745 mmHg 81%
    03:00 +19°C° 0 mm 3 mps 745 mmHg 81%
    04:00 +19°C° 0 mm 3 mps 745 mmHg 83%
    05:00 +19°C° 0 mm 3 mps 745 mmHg 84%
    06:00 +19°C° 0 mm 3 mps 745 mmHg 85%
    07:00 +21°C° 0 mm 3 mps 745 mmHg 82%
    08:00 +22°C° 0 mm 3 mps 745 mmHg 78%
    09:00 +25°C° 0 mm 4 mps 745 mmHg 74%
    10:00 +26°C° 0.1 mm 4 mps 745 mmHg 70%
    11:00 +27°C° 0.1 mm 4 mps 745 mmHg 66%
    12:00 +27°C° 0.1 mm 4 mps 745 mmHg 62%
    13:00 +28°C° 0 mm 5 mps 745 mmHg 62%
    14:00 +28°C° 0 mm 5 mps 744 mmHg 62%
    15:00 +28°C° 0 mm 5 mps 744 mmHg 62%
    16:00 +28°C° 0 mm 4 mps 744 mmHg 65%
    17:00 +27°C° 0 mm 4 mps 744 mmHg 68%
    18:00 +27°C° 0 mm 3 mps 744 mmHg 71%
    19:00 +26°C° 0.1 mm 3 mps 744 mmHg 75%
    20:00 +24°C° 0.1 mm 3 mps 744 mmHg 79%
    21:00 +22°C° 0.1 mm 3 mps 744 mmHg 83%
    22:00 +21°C° 0 mm 3 mps 744 mmHg 83%
    23:00 +21°C° 0 mm 3 mps 744 mmHg 83%
    Mostrar más